This demonstration page uses our WeatherBlox Daily Observations layout. Learn more.

Left ArrowRight Arrow

Hourly Observations for October 14, 2015

Temp ( °F °C ) Dew Point ( °F °C ) Humidity (%) Winds ( mph kmh ) Pressure ( in mb ) Visibility ( mi km ) Precip ( " mm )
12:15 am 00:15 Clear 54 12 34 1 47 47 N 5 7 30.06 1018 10 16 0.00 0.00
12:35 am 00:35 Clear 52 11 34 1 50 50 N 7 11 30.06 1018 10 16 0.00 0.00
12:55 am 00:55 Clear 48 9 34 1 58 58 N 8 13 30.06 1018 10 16 0.00 0.00
1:15 am 01:15 Clear 48 9 34 1 58 58 NNW 3 6 30.06 1018 10 16 0.00 0.00
1:35 am 01:35 Clear 50 10 34 1 54 54 NNW 5 7 30.06 1018 10 16 0.00 0.00
1:55 am 01:55 Clear 48 9 34 1 58 58 NNW 6 9 30.06 1018 10 16 0.00 0.00
2:15 am 02:15 Clear 50 10 34 1 54 54 NNW 6 9 30.06 1018 10 16 0.00 0.00
2:35 am 02:35 Clear 48 9 34 1 58 58 NNW 5 7 30.06 1018 10 16 0.00 0.00
2:55 am 02:55 Clear 46 8 34 1 62 62 NNW 6 9 30.09 1019 10 16 0.00 0.00
3:15 am 03:15 Clear 46 8 34 1 62 62 NW 5 7 30.09 1019 10 16 0.00 0.00
3:35 am 03:35 Clear 46 8 34 1 62 62 NNW 5 7 30.12 1020 10 16 0.00 0.00
3:55 am 03:55 Clear 48 9 34 1 58 58 N 7 11 30.12 1020 10 16 0.00 0.00
4:15 am 04:15 Clear 46 8 34 1 62 62 NW 3 6 30.12 1020 10 16 0.00 0.00
4:35 am 04:35 Clear 45 7 34 1 66 66 NNW 6 9 30.12 1020 10 16 0.00 0.00
4:55 am 04:55 Clear 45 7 34 1 66 66 NNW 5 7 30.12 1020 10 16 0.00 0.00
5:15 am 05:15 Clear 45 7 34 1 66 66 NNW 5 7 30.12 1020 10 16 0.00 0.00
5:35 am 05:35 Clear 46 8 32 0 57 57 N 5 7 30.12 1020 10 16 0.00 0.00
5:55 am 05:55 Clear 43 6 34 1 71 71 NNW 5 7 30.12 1020 10 16 0.00 0.00
6:15 am 06:15 Clear 45 7 32 0 61 61 NNW 5 7 30.12 1020 10 16 0.00 0.00
6:35 am 06:35 Clear 43 6 32 0 66 66 NW 7 11 30.12 1020 10 16 0.00 0.00
6:55 am 06:55 Clear 43 6 32 0 66 66 NW 5 7 30.12 1020 10 16 0.00 0.00
7:15 am 07:15 Clear 43 6 32 0 66 66 WNW 6 9 30.15 1021 10 16 0.00 0.00
7:35 am 07:35 Clear 43 6 32 0 66 66 WNW 5 7 30.15 1021 10 16 0.00 0.00
7:55 am 07:55 Sunny 43 6 32 0 66 66 WNW 6 9 30.15 1021 10 16 0.00 0.00
8:15 am 08:15 Sunny 43 6 32 0 66 66 NNW 3 6 30.15 1021 10 16 0.00 0.00
8:35 am 08:35 Sunny 43 6 34 1 71 71 NNW 3 6 30.15 1021 10 16 0.00 0.00
8:55 am 08:55 Sunny 45 7 34 1 66 66 Calm 30.15 1021 10 16 0.00 0.00
9:15 am 09:15 Sunny 48 9 36 2 62 62 N 3 6 30.15 1021 10 16 0.00 0.00
9:35 am 09:35 Sunny 50 10 36 2 58 58 Calm 30.12 1020 10 16 0.00 0.00
9:55 am 09:55 Sunny 55 13 36 2 47 47 E 3 6 30.15 1021 10 16 0.00 0.00
10:15 am 10:15 Sunny 57 14 36 2 44 44 ESE 6 9 30.12 1020 10 16 0.00 0.00
10:35 am 10:35 Sunny 61 16 36 2 39 39 SSE 5 7 30.12 1020 6 10 0.00 0.00
10:55 am 10:55 Sunny 63 17 36 2 37 37 SE 8 13 30.09 1019 5 8 0.00 0.00
11:15 am 11:15 Sunny 64 18 36 2 34 34 ESE 8 13 30.09 1019 5 8 0.00 0.00
11:35 am 11:35 Sunny 64 18 36 2 34 34 SE 7 11 30.09 1019 9 14 0.00 0.00
11:55 am 11:55 Sunny 66 19 36 2 32 32 ESE 7 11 30.09 1019 8 13 0.00 0.00
12:15 pm 12:15 Sunny 68 20 36 2 30 30 SSE 9 15 30.06 1018 10 16 0.00 0.00
12:35 pm 12:35 Sunny 70 21 36 2 29 29 SE 7 11 30.03 1017 10 16 0.00 0.00
12:55 pm 12:55 Sunny 70 21 34 1 27 27 SE 6 9 30.03 1017 10 16 0.00 0.00
1:15 pm 13:15 Sunny 70 21 34 1 27 27 ESE 8 13 30.03 1017 10 16 0.00 0.00
1:35 pm 13:35 Sunny 72 22 34 1 25 25 S 5 7 30.03 1017 10 16 0.00 0.00
1:55 pm 13:55 Sunny 72 22 36 2 27 27 SSE 9 15 30.03 1017 10 16 0.00 0.00
2:15 pm 14:15 Sunny 73 23 36 2 25 25 SE 8 13 30.00 1016 10 16 0.00 0.00
2:35 pm 14:35 Sunny 73 23 36 2 25 25 SE 9 15 30.00 1016 10 16 0.00 0.00
2:55 pm 14:55 Sunny 73 23 36 2 25 25 ESE 7 11 29.97 1015 10 16 0.00 0.00
3:15 pm 15:15 Sunny 75 24 36 2 24 24 S 8 13 29.94 1014 10 16 0.00 0.00
3:35 pm 15:35 Sunny 73 23 36 2 25 25 SSW 9 15 29.97 1015 10 16 0.00 0.00
3:55 pm 15:55 Sunny 75 24 36 2 24 24 SSE 12 19 29.91 1013 10 16 0.00 0.00
4:15 pm 16:15 Sunny 75 24 36 2 24 24 SSW 10 17 29.91 1013 10 16 0.00 0.00
4:35 pm 16:35 Sunny 75 24 34 1 22 22 S 14 22 29.91 1013 10 16 0.00 0.00
4:55 pm 16:55 Sunny 75 24 34 1 22 22 SE 13 20 29.91 1013 10 16 0.00 0.00
5:15 pm 17:15 Sunny 75 24 36 2 24 24 SSE 15 24 29.91 1013 10 16 0.00 0.00
5:35 pm 17:35 Sunny 73 23 34 1 23 23 ESE 13 20 29.94 1014 10 16 0.00 0.00
5:55 pm 17:55 Sunny 73 23 36 2 25 25 SSE 14 22 29.94 1014 10 16 0.00 0.00
6:15 pm 18:15 Sunny 72 22 36 2 27 27 SE 10 17 29.94 1014 10 16 0.00 0.00
6:35 pm 18:35 Sunny 70 21 34 1 27 27 undefined N/A 29.94 1014 10 16 0.00 0.00
6:55 pm 18:55 Sunny 68 20 34 1 28 28 NNE 5 7 29.94 1014 10 16 0.00 0.00
7:15 pm 19:15 Clear 66 19 34 1 30 30 undefined N/A 29.97 1015 10 16 0.00 0.00
7:35 pm 19:35 Clear 66 19 34 1 30 30 undefined N/A 29.97 1015 10 16 0.00 0.00
7:55 pm 19:55 Clear 63 17 34 1 34 34 S 5 7 30.00 1016 10 16 0.00 0.00
8:15 pm 20:15 Clear 63 17 34 1 34 34 ESE 8 13 30.00 1016 10 16 0.00 0.00
8:35 pm 20:35 Clear 59 15 34 1 39 39 undefined N/A 30.03 1017 10 16 0.00 0.00
8:55 pm 20:55 Clear 57 14 34 1 41 41 SSE 5 7 30.03 1017 10 16 0.00 0.00
9:15 pm 21:15 Clear 55 13 34 1 44 44 SSE 7 11 30.00 1016 10 16 0.00 0.00
9:35 pm 21:35 Clear 54 12 34 1 47 47 SSE 8 13 30.03 1017 10 16 0.00 0.00
9:55 pm 21:55 Clear 54 12 34 1 47 47 SSE 8 13 30.06 1018 10 16 0.00 0.00
10:15 pm 22:15 Clear 55 13 34 1 44 44 undefined N/A 30.03 1017 10 16 0.00 0.00
10:35 pm 22:35 Clear 57 14 32 0 39 39 undefined N/A 30.03 1017 10 16 0.00 0.00
10:55 pm 22:55 Clear 57 14 32 0 39 39 S 6 9 30.03 1017 10 16 0.00 0.00
11:15 pm 23:15 Clear 54 12 34 1 47 47 SE 7 11 30.06 1018 10 16 0.00 0.00
11:35 pm 23:35 Clear 54 12 34 1 47 47 undefined N/A 30.06 1018 10 16 0.00 0.00
11:55 pm 23:55 Clear 55 13 32 0 41 41 SSW 5 7 30.03 1017 10 16 0.00 0.00

Powered by AerisWeather